Вернуться в каталог

STARLINK-5624

АктивенСвязьVLEO
NORAD 55416·PAYLOAD·🇺🇸 United States

Запущен Jan 31, 2023 с Vandenberg Space Force Base

Loading…

Ближайшие Пролёты (ближайшие 24 часа)

TLE

СвежийSource: CelesTrak SupGP

Эпоха: Sep 15, 2026, 02:53 UTC

1 55416C 23014AB  26258.12062500  .00049527  00000+0  41498-2 0  2582
2 55416  70.0009 326.7960 0003527 268.9677 252.0425 14.98311216    11

Отслеживайте STARLINK-5624 в реальном времени с AllMySat

Download on the App Store